Weather in Pervomayka

Russia / Kostroma Oblast     57°39′09″N   43°39′43″E
temp.,
°C
wind,
m/s
gust,
m/s
humid.,
%
clouds,
%
prec.,
mm/h
press.,
hPa
HPBL,
m
7 may, fri
fri700:00+11ssw6148175 0.2 1006857
03:00+10ssw51089100 0.3 1007648
06:00+9sw4997100 2.1 1008546
09:00+9sw3584100 3.7 1008564
12:00+9ssw4680100 2.2 1010843
15:00+12sw485699 2.4 10101813
18:00+12w48533 0.0 1011983
21:00+6sw22755 0.0 101428
8 may, sat
sat800:00+5ssw33780 0.0 101546
03:00+4s368324 0.0 1016108
06:00+6sse397699 0.0 1016230
09:00+13sse58515 0.0 10151213
12:00+15sse7943100 0.0 10131982
15:00+13se5115699 0.0 10111495
18:00+13sse61258100 0.0 10091219
21:00+11s51283100 0.6 1007821
9 may, sun
sun900:00+10sse61393100 2.6 1006939
03:00+10ssw51290100 3.7 1005728
06:00+10s4998100 4.9 1005560
09:00+10ssw61189100 6.1 1006896
12:00+6wsw61087100 0.2 1011796
15:00+7wnw5974100 0.3 10161163
18:00+9wnw4871100 0.1 10181160
21:00+6wnw3682100 0.1 1021158
10 may, mon
mon1000:00+4wnw258912 0.0 102391
03:00+2wnw22900 0.0 102617
06:00+5wnw23764 0.0 1028122
09:00+11w23515 0.0 1029754
12:00+14w343859 0.0 10291812
15:00+15w35367 0.0 10292109
18:00+14wsw365253 0.0 1029344
21:00+10sw356356 0.0 103093
11 may, tue
tue1100:00+7sw227680 0.0 103136
03:00+6sw347994 0.0 103263
06:00+8sw267797 0.0 1033152
09:00+14sw355838 0.0 1033558
12:00+18sw454961 0.0 10321097
15:00+19sw454853 0.0 10311335
18:00+18sw35617 0.0 1030268
21:00+11sw3479100 0.0 103058